Simultaneous Nadir Overpasses (SNOs) Predictions

Prediction of SNOs between LANDSAT-8 and NOAA-19 Satellite Orbit:

Table of predicted SNOs for the next 14.0 days since TLE Epoch: 2/29/2020
Index Date (LANDSAT-8) Time (LANDSAT-8) Lat,Lon (LANDSAT-8) SZA (LANDSAT-8 ) Date (NOAA-19) Time (NOAA-19) Lat,Lon (NOAA-19) SZA (NOAA-19 ) Distance(km) Time Diff (sec)
1 02/29/2020 06:24:16 -79.54, -72.13 92.08 02/29/2020 06:23:58 -79.51, -72.23 92.11 3.07 18
2 02/29/2020 07:13:42 79.50, 95.27 87.86 02/29/2020 07:14:52 79.49, 95.29 87.87 1.29 70
3 03/02/2020 11:57:58 79.53, 24.38 87.07 03/02/2020 11:57:13 79.53, 24.37 87.06 0.48 45
4 03/02/2020 12:47:26 -79.49,-168.23 93.00 03/02/2020 12:48:17 -79.50,-168.09 92.97 3.07 51
5 03/04/2020 17:31:41 -79.56, 121.15 93.75 03/04/2020 17:30:38 -79.54, 121.06 93.79 2.82 63
6 03/04/2020 18:21:08 79.52, -71.49 86.19 03/04/2020 18:21:33 79.53, -71.57 86.20 1.97 25
7 03/06/2020 23:54:51 -79.55, 25.28 94.63 03/06/2020 23:54:58 -79.53, 25.16 94.65 3.14 7
8 03/09/2020 05:28:34 79.52, 121.70 84.49 03/09/2020 05:28:13 79.54, 121.85 84.50 3.34 21
9 03/09/2020 06:18:03 -79.46, -71.13 95.63 03/09/2020 06:19:13 -79.37, -69.35 95.56 37.42 70
10 03/11/2020 11:02:17 -79.55,-141.53 96.34 03/11/2020 11:01:39 -79.56,-141.67 96.36 2.81 38
11 03/11/2020 11:51:43 79.55, 26.05 83.64 03/11/2020 11:52:33 79.53, 25.91 83.63 3.28 50
12 03/13/2020 16:35:59 79.56, -44.90 82.81 03/13/2020 16:34:54 79.57, -45.01 82.79 2.48 65




NCC Satellite Simultaneous Nadir Overpasses (SNOs) Prediction Service
